User: anonymous
Location: Caribou
(46.8667°N, 68.0167°W)
Time: 10:53:32
(UTC-04:00)
Language:

SL-08 RB Rocket - Orbit

View from above orbital plane
View from above orbital plane
View from above satellite
View from above satellite

Ground track
Ground track

The orbit data is extracted from the following two-line orbital elements,

1 26387U 00033D   14237.16685036  .00000281  00000-0  58221-4 0  5869
2 26387 098.0999 304.1067 0026413 357.8354 054.5046 14.67345010757200
Epoch (UTC): 25 August 2014 04:00:15
Eccentricity: 0.0026413
inclination: 98.0999°
perigee height: 651 km
apogee height: 688 km
right ascension of ascending node: 304.1067°
argument of perigee: 357.8354°
revolutions per day: 14.67345010
mean anomaly at epoch: 54.5046°
orbit number at epoch: 75720

The dashed part of the orbit path shows where the satellite is in the earth's shadow,  

DLR